Time,TemperatureF,DewpointF,PressureIn,WindDirection,WindDirectionDegrees,WindSpeedMPH,WindSpeedGustMPH,Humidity,HourlyPrecipIn,Conditions,Clouds,dailyrainin,SoftwareType,DateUTC
2013-07-20 00:01:00,75.5,72.4,30.05,South,177,3.0,5.0,90,0.00,,---,0.00,VWS V14.01,2013-07-20 04:01:00,
2013-07-20 00:06:00,75.4,72.3,30.05,SSW,193,3.0,4.0,90,0.00,,---,0.00,VWS V14.01,2013-07-20 04:06:00,
2013-07-20 00:11:00,75.3,72.5,30.05,South,190,1.0,3.0,91,0.00,,---,0.00,VWS V14.01,2013-07-20 04:11:00,
2013-07-20 00:16:00,75.1,72.3,30.05,SW,215,4.0,4.0,91,0.00,,---,0.00,VWS V14.01,2013-07-20 04:16:00,
2013-07-20 00:21:00,75.0,72.2,30.05,SSW,207,1.0,5.0,91,0.00,,---,0.00,VWS V14.01,2013-07-20 04:21:00,
2013-07-20 00:26:00,74.8,72.3,30.05,SSE,153,4.0,4.0,92,0.00,,---,0.00,VWS V14.01,2013-07-20 04:26:00,
2013-07-20 00:31:00,74.8,72.3,30.05,SE,142,0.0,3.0,92,0.00,,---,0.00,VWS V14.01,2013-07-20 04:31:00,
2013-07-20 00:36:00,74.7,72.2,30.05,SSE,158,3.0,4.0,92,0.00,,---,0.00,VWS V14.01,2013-07-20 04:36:00,
2013-07-20 00:41:00,74.6,72.4,30.05,SSW,205,2.0,3.0,93,0.00,,---,0.00,VWS V14.01,2013-07-20 04:41:00,
2013-07-20 00:46:00,74.6,72.4,30.05,South,187,1.0,2.0,93,0.00,,---,0.00,VWS V14.01,2013-07-20 04:46:00,
2013-07-20 00:51:00,74.5,72.3,30.05,SSW,203,0.0,2.0,93,0.00,,---,0.00,VWS V14.01,2013-07-20 04:51:00,
2013-07-20 00:56:00,74.4,72.2,30.05,SW,219,4.0,5.0,93,0.00,,---,0.00,VWS V14.01,2013-07-20 04:56:00,
2013-07-20 01:01:00,74.4,72.2,30.04,South,170,4.0,5.0,93,0.00,,---,0.00,VWS V14.01,2013-07-20 05:01:00,
2013-07-20 01:06:00,74.4,72.2,30.04,SSE,165,3.0,3.0,93,0.00,,---,0.00,VWS V14.01,2013-07-20 05:06:00,
2013-07-20 01:11:00,74.3,72.5,30.04,SSW,194,4.0,6.0,94,0.00,,---,0.00,VWS V14.01,2013-07-20 05:11:00,
2013-07-20 01:16:00,74.3,72.5,30.04,SW,226,2.0,3.0,94,0.00,,---,0.00,VWS V14.01,2013-07-20 05:16:00,
2013-07-20 01:21:00,74.3,72.2,30.04,SSW,194,4.0,5.0,93,0.00,,---,0.00,VWS V14.01,2013-07-20 05:21:00,
2013-07-20 01:26:00,74.2,72.1,30.03,South,181,3.0,4.0,93,0.00,,---,0.00,VWS V14.01,2013-07-20 05:26:00,
2013-07-20 01:31:00,74.3,72.2,30.03,South,169,4.0,5.0,93,0.00,,---,0.00,VWS V14.01,2013-07-20 05:31:00,
2013-07-20 01:36:00,74.3,72.2,30.03,South,186,5.0,5.0,93,0.00,,---,0.00,VWS V14.01,2013-07-20 05:36:00,
2013-07-20 01:41:00,74.3,72.2,30.03,SW,214,6.0,8.0,93,0.00,,---,0.00,VWS V14.01,2013-07-20 05:41:00,
2013-07-20 01:46:00,74.3,72.2,30.03,SE,136,1.0,5.0,93,0.00,,---,0.00,VWS V14.01,2013-07-20 05:46:00,
2013-07-20 01:51:00,74.2,72.1,30.02,SSW,205,8.0,8.0,93,0.00,,---,0.00,VWS V14.01,2013-07-20 05:51:00,
2013-07-20 01:56:00,74.2,72.4,30.02,SSE,149,4.0,9.0,94,0.00,,---,0.00,VWS V14.01,2013-07-20 05:56:00,
2013-07-20 02:01:00,74.1,72.3,30.02,SSW,210,4.0,4.0,94,0.00,,---,0.00,VWS V14.01,2013-07-20 06:01:00,
2013-07-20 02:06:00,74.1,72.3,30.02,South,172,2.0,5.0,94,0.00,,---,0.00,VWS V14.01,2013-07-20 06:06:00,
2013-07-20 02:11:00,74.0,72.2,30.02,SSE,162,3.0,4.0,94,0.00,,---,0.00,VWS V14.01,2013-07-20 06:11:00,
2013-07-20 02:16:00,73.9,72.1,30.02,South,187,2.0,4.0,94,0.00,,---,0.00,VWS V14.01,2013-07-20 06:16:00,
2013-07-20 02:21:00,73.8,72.0,30.01,SW,225,3.0,5.0,94,0.00,,---,0.00,VWS V14.01,2013-07-20 06:21:00,
2013-07-20 02:26:00,73.7,72.2,30.01,SSE,157,4.0,5.0,95,0.00,,---,0.00,VWS V14.01,2013-07-20 06:26:00,
2013-07-20 02:31:00,73.6,72.1,30.01,SSE,149,1.0,6.0,95,0.00,,---,0.00,VWS V14.01,2013-07-20 06:31:00,
2013-07-20 02:36:00,73.5,72.0,30.01,SSW,194,5.0,5.0,95,0.00,,---,0.00,VWS V14.01,2013-07-20 06:36:00,
2013-07-20 02:41:00,73.5,72.0,30.01,SW,217,4.0,5.0,95,0.00,,---,0.00,VWS V14.01,2013-07-20 06:41:00,
2013-07-20 02:46:00,73.5,72.0,30.01,SSE,153,0.0,7.0,95,0.00,,---,0.00,VWS V14.01,2013-07-20 06:46:00,
2013-07-20 02:51:00,73.4,71.9,30.01,South,170,2.0,4.0,95,0.00,,---,0.00,VWS V14.01,2013-07-20 06:51:00,
2013-07-20 02:57:00,73.4,71.9,30.01,South,180,3.0,5.0,95,0.00,,---,0.00,VWS V14.01,2013-07-20 06:57:00,
2013-07-20 03:02:00,73.4,71.9,30.01,SW,229,5.0,8.0,95,0.00,,---,0.00,VWS V14.01,2013-07-20 07:02:00,
2013-07-20 03:07:00,73.4,71.9,30.01,South,187,5.0,5.0,95,0.00,,---,0.00,VWS V14.01,2013-07-20 07:07:00,
2013-07-20 03:12:00,73.3,71.8,30.01,SW,215,2.0,7.0,95,0.00,,---,0.00,VWS V14.01,2013-07-20 07:12:00,
2013-07-20 03:17:00,73.4,71.9,30.01,SSW,211,4.0,5.0,95,0.00,,---,0.00,VWS V14.01,2013-07-20 07:17:00,
2013-07-20 03:22:00,73.4,71.9,30.01,South,171,4.0,6.0,95,0.00,,---,0.00,VWS V14.01,2013-07-20 07:22:00,
2013-07-20 03:27:00,73.4,72.2,30.01,SE,145,3.0,4.0,96,0.00,,---,0.00,VWS V14.01,2013-07-20 07:27:00,
2013-07-20 03:32:00,73.4,72.2,30.01,South,176,1.0,6.0,96,0.00,,---,0.00,VWS V14.01,2013-07-20 07:32:00,
2013-07-20 03:37:00,73.4,71.9,30.01,SSW,197,6.0,7.0,95,0.00,,---,0.00,VWS V14.01,2013-07-20 07:37:00,
2013-07-20 03:42:00,73.5,72.3,30.01,SSW,197,2.0,7.0,96,0.00,,---,0.00,VWS V14.01,2013-07-20 07:42:00,
2013-07-20 03:47:00,73.5,72.0,30.02,SW,222,2.0,5.0,95,0.00,,---,0.00,VWS V14.01,2013-07-20 07:47:00,
2013-07-20 03:52:00,73.6,72.4,30.02,SSW,195,6.0,6.0,96,0.00,,---,0.00,VWS V14.01,2013-07-20 07:52:00,
2013-07-20 03:57:00,73.6,72.4,30.02,SSW,198,3.0,4.0,96,0.00,,---,0.00,VWS V14.01,2013-07-20 07:57:00,
2013-07-20 04:02:00,73.6,72.4,30.02,South,186,5.0,8.0,96,0.00,,---,0.00,VWS V14.01,2013-07-20 08:02:00,
2013-07-20 04:07:00,73.7,72.2,30.02,SSW,203,0.0,4.0,95,0.00,,---,0.00,VWS V14.01,2013-07-20 08:07:00,
2013-07-20 04:12:00,73.7,72.2,30.02,SW,216,0.0,7.0,95,0.00,,---,0.00,VWS V14.01,2013-07-20 08:12:00,
2013-07-20 04:17:00,73.7,72.2,30.02,SW,235,5.0,5.0,95,0.00,,---,0.00,VWS V14.01,2013-07-20 08:17:00,
2013-07-20 04:22:00,73.7,72.2,30.02,SW,228,2.0,2.0,95,0.00,,---,0.00,VWS V14.01,2013-07-20 08:22:00,
2013-07-20 04:27:00,73.6,72.1,30.02,SW,224,2.0,4.0,95,0.00,,---,0.00,VWS V14.01,2013-07-20 08:27:00,
2013-07-20 04:32:00,73.6,72.4,30.02,SSW,198,4.0,5.0,96,0.00,,---,0.00,VWS V14.01,2013-07-20 08:32:00,
2013-07-20 04:37:00,73.6,72.4,30.02,ESE,117,3.0,4.0,96,0.00,,---,0.00,VWS V14.01,2013-07-20 08:37:00,
2013-07-20 04:42:00,73.6,72.4,30.02,SW,219,1.0,5.0,96,0.00,,---,0.00,VWS V14.01,2013-07-20 08:42:00,
2013-07-20 04:47:00,73.6,72.4,30.02,SW,215,3.0,5.0,96,0.00,,---,0.00,VWS V14.01,2013-07-20 08:47:00,
2013-07-20 04:52:00,73.5,72.3,30.02,SSW,207,2.0,4.0,96,0.00,,---,0.00,VWS V14.01,2013-07-20 08:52:00,
2013-07-20 04:57:00,73.5,72.3,30.02,SW,225,5.0,6.0,96,0.00,,---,0.00,VWS V14.01,2013-07-20 08:57:00,
2013-07-20 05:02:00,73.5,72.3,30.02,SSW,195,3.0,5.0,96,0.00,,---,0.00,VWS V14.01,2013-07-20 09:02:00,
2013-07-20 05:07:00,73.4,72.2,30.02,SW,214,1.0,5.0,96,0.00,,---,0.00,VWS V14.01,2013-07-20 09:07:00,
2013-07-20 05:12:00,73.3,72.1,30.02,WSW,251,1.0,3.0,96,0.00,,---,0.00,VWS V14.01,2013-07-20 09:12:00,
2013-07-20 05:17:00,73.3,72.1,30.02,SW,231,2.0,2.0,96,0.00,,---,0.00,VWS V14.01,2013-07-20 09:17:00,
2013-07-20 05:22:00,73.2,72.0,30.02,SW,219,0.0,2.0,96,0.00,,---,0.00,VWS V14.01,2013-07-20 09:22:00,
2013-07-20 05:27:00,73.1,71.9,30.02,SSE,158,2.0,2.0,96,0.00,,---,0.00,VWS V14.01,2013-07-20 09:27:00,
2013-07-20 05:32:00,73.1,71.9,30.02,SSW,193,5.0,5.0,96,0.00,,---,0.00,VWS V14.01,2013-07-20 09:32:00,
2013-07-20 05:37:00,73.0,71.8,30.02,SSW,193,0.0,5.0,96,0.00,,---,0.00,VWS V14.01,2013-07-20 09:37:00,
2013-07-20 05:42:00,72.9,71.7,30.01,SSW,197,2.0,4.0,96,0.00,,---,0.00,VWS V14.01,2013-07-20 09:42:00,
2013-07-20 05:47:00,72.9,71.7,30.01,South,174,2.0,5.0,96,0.00,,---,0.00,VWS V14.01,2013-07-20 09:47:00,
2013-07-20 05:52:00,72.8,71.6,30.02,SSE,157,4.0,4.0,96,0.00,,---,0.00,VWS V14.01,2013-07-20 09:52:00,
2013-07-20 05:57:00,72.7,71.5,30.02,SSE,166,2.0,3.0,96,0.00,,---,0.00,VWS V14.01,2013-07-20 09:57:00,
2013-07-20 06:02:00,72.7,71.5,30.02,South,172,2.0,3.0,96,0.00,,---,0.00,VWS V14.01,2013-07-20 10:02:00,
2013-07-20 06:07:00,72.7,71.8,30.02,SW,235,3.0,5.0,97,0.00,,---,0.00,VWS V14.01,2013-07-20 10:07:00,
2013-07-20 06:12:00,72.7,71.8,30.02,South,184,4.0,4.0,97,0.00,,---,0.00,VWS V14.01,2013-07-20 10:12:00,
2013-07-20 06:17:00,72.6,71.7,30.01,SSE,158,3.0,6.0,97,0.00,,---,0.00,VWS V14.01,2013-07-20 10:17:00,
2013-07-20 06:22:00,72.7,71.8,30.02,SW,217,1.0,7.0,97,0.00,,---,0.00,VWS V14.01,2013-07-20 10:22:00,
2013-07-20 06:27:00,72.7,71.8,30.01,SW,218,1.0,2.0,97,0.00,,---,0.00,VWS V14.01,2013-07-20 10:27:00,
2013-07-20 06:32:00,72.6,71.7,30.01,SSW,207,1.0,5.0,97,0.00,,---,0.00,VWS V14.01,2013-07-20 10:32:00,
2013-07-20 06:37:00,72.6,71.7,30.01,South,184,2.0,3.0,97,0.00,,---,0.00,VWS V14.01,2013-07-20 10:37:00,
2013-07-20 06:42:00,72.6,71.7,30.01,SSW,204,2.0,4.0,97,0.00,,---,0.00,VWS V14.01,2013-07-20 10:42:00,
2013-07-20 06:47:00,72.6,71.7,30.01,SSW,204,2.0,4.0,97,0.00,,---,0.00,VWS V14.01,2013-07-20 10:47:00,
2013-07-20 06:52:00,72.6,71.7,30.01,South,177,1.0,3.0,97,0.00,,---,0.00,VWS V14.01,2013-07-20 10:52:00,
2013-07-20 06:57:00,72.7,71.8,30.01,WSW,243,2.0,3.0,97,0.00,,---,0.00,VWS V14.01,2013-07-20 10:57:00,
2013-07-20 07:02:00,72.8,71.9,30.02,SSW,200,0.0,3.0,97,0.00,,---,0.00,VWS V14.01,2013-07-20 11:02:00,
2013-07-20 07:07:00,72.9,72.0,30.02,South,191,5.0,5.0,97,0.00,,---,0.00,VWS V14.01,2013-07-20 11:07:00,
2013-07-20 07:12:00,73.0,72.1,30.02,SSW,194,2.0,6.0,97,0.00,,---,0.00,VWS V14.01,2013-07-20 11:12:00,
2013-07-20 07:17:00,73.1,72.2,30.03,SSW,198,3.0,5.0,97,0.00,,---,0.00,VWS V14.01,2013-07-20 11:17:00,
2013-07-20 07:22:00,73.2,72.3,30.02,SSE,152,0.0,6.0,97,0.00,,---,0.00,VWS V14.01,2013-07-20 11:22:00,
2013-07-20 07:27:00,73.3,72.4,30.03,WSW,238,6.0,6.0,97,0.00,,---,0.00,VWS V14.01,2013-07-20 11:27:00,
2013-07-20 07:32:00,73.4,72.5,30.03,SSW,204,6.0,6.0,97,0.00,,---,0.00,VWS V14.01,2013-07-20 11:32:00,
2013-07-20 07:37:00,73.6,72.4,30.03,South,184,5.0,7.0,96,0.00,,---,0.00,VWS V14.01,2013-07-20 11:37:00,
2013-07-20 07:42:00,73.7,72.5,30.03,South,188,7.0,8.0,96,0.00,,---,0.00,VWS V14.01,2013-07-20 11:42:00,
2013-07-20 07:47:00,73.9,72.7,30.03,SW,217,3.0,6.0,96,0.00,,---,0.00,VWS V14.01,2013-07-20 11:47:00,
2013-07-20 07:52:00,74.0,72.5,30.04,South,170,4.0,4.0,95,0.00,,---,0.00,VWS V14.01,2013-07-20 11:52:00,
2013-07-20 07:57:00,74.1,72.6,30.04,SSW,194,3.0,6.0,95,0.00,,---,0.00,VWS V14.01,2013-07-20 11:57:00,
2013-07-20 08:02:00,74.2,72.7,30.04,SW,215,2.0,4.0,95,0.00,,---,0.00,VWS V14.01,2013-07-20 12:02:00,
2013-07-20 08:07:00,74.3,72.5,30.04,SSW,210,3.0,5.0,94,0.00,,---,0.00,VWS V14.01,2013-07-20 12:07:00,
2013-07-20 08:12:00,74.4,72.6,30.04,SSW,198,7.0,7.0,94,0.00,,---,0.00,VWS V14.01,2013-07-20 12:12:00,
2013-07-20 08:17:00,74.5,72.3,30.04,SSW,197,7.0,9.0,93,0.00,,---,0.00,VWS V14.01,2013-07-20 12:17:00,
2013-07-20 08:22:00,74.7,72.6,30.04,SSW,211,6.0,8.0,93,0.00,,---,0.00,VWS V14.01,2013-07-20 12:22:00,
2013-07-20 08:27:00,74.8,72.6,30.04,SSW,193,2.0,5.0,93,0.00,,---,0.00,VWS V14.01,2013-07-20 12:27:00,
2013-07-20 08:32:00,74.9,72.7,30.04,South,172,2.0,4.0,93,0.00,,---,0.00,VWS V14.01,2013-07-20 12:32:00,
2013-07-20 08:37:00,75.0,72.5,30.05,SSE,155,5.0,7.0,92,0.00,,---,0.00,VWS V14.01,2013-07-20 12:37:00,
2013-07-20 08:42:00,75.1,72.6,30.05,SSW,212,5.0,7.0,92,0.00,,---,0.00,VWS V14.01,2013-07-20 12:42:00,
2013-07-20 08:47:00,75.2,72.7,30.04,SW,216,1.0,2.0,92,0.00,,---,0.00,VWS V14.01,2013-07-20 12:47:00,
2013-07-20 08:52:00,75.4,72.9,30.04,WSW,238,1.0,6.0,92,0.00,,---,0.00,VWS V14.01,2013-07-20 12:52:00,
2013-07-20 08:57:00,75.4,72.6,30.05,SW,228,6.0,9.0,91,0.00,,---,0.00,VWS V14.01,2013-07-20 12:57:00,
2013-07-20 09:02:00,75.5,73.0,30.04,SSW,198,4.0,6.0,92,0.00,,---,0.00,VWS V14.01,2013-07-20 13:02:00,
2013-07-20 09:08:00,75.6,72.8,30.04,SSW,207,5.0,7.0,91,0.00,,---,0.00,VWS V14.01,2013-07-20 13:08:00,
2013-07-20 09:13:00,75.8,73.0,30.05,SSW,203,4.0,6.0,91,0.00,,---,0.00,VWS V14.01,2013-07-20 13:13:00,
2013-07-20 09:18:00,75.7,72.9,30.04,SSW,198,5.0,8.0,91,0.00,,---,0.00,VWS V14.01,2013-07-20 13:18:00,
2013-07-20 09:23:00,75.7,72.9,30.05,SSE,155,0.0,6.0,91,0.00,,---,0.00,VWS V14.01,2013-07-20 13:23:00,
2013-07-20 09:28:00,75.6,72.8,30.04,South,183,4.0,7.0,91,0.00,,---,0.00,VWS V14.01,2013-07-20 13:28:00,
2013-07-20 09:33:00,75.7,72.9,30.04,SW,235,0.0,6.0,91,0.00,,---,0.00,VWS V14.01,2013-07-20 13:33:00,
2013-07-20 09:38:00,75.7,72.9,30.04,SSW,195,4.0,8.0,91,0.00,,---,0.00,VWS V14.01,2013-07-20 13:38:00,
2013-07-20 09:43:00,75.8,73.0,30.04,SSW,193,3.0,6.0,91,0.00,,---,0.00,VWS V14.01,2013-07-20 13:43:00,
2013-07-20 09:48:00,75.8,72.7,30.04,South,179,8.0,8.0,90,0.00,,---,0.00,VWS V14.01,2013-07-20 13:48:00,
2013-07-20 09:53:00,75.9,73.1,30.05,SSW,212,2.0,5.0,91,0.00,,---,0.00,VWS V14.01,2013-07-20 13:53:00,
2013-07-20 09:58:00,76.1,73.3,30.05,SSW,194,4.0,8.0,91,0.00,,---,0.00,VWS V14.01,2013-07-20 13:58:00,
2013-07-20 10:03:00,76.1,73.0,30.05,SSW,197,7.0,11.0,90,0.00,,---,0.00,VWS V14.01,2013-07-20 14:03:00,
2013-07-20 10:08:00,76.2,73.1,30.05,SSE,148,3.0,8.0,90,0.00,,---,0.00,VWS V14.01,2013-07-20 14:08:00,
2013-07-20 10:13:00,76.4,73.2,30.05,SW,235,7.0,8.0,90,0.00,,---,0.00,VWS V14.01,2013-07-20 14:13:00,
2013-07-20 10:18:00,76.8,73.7,30.05,South,181,6.0,7.0,90,0.00,,---,0.00,VWS V14.01,2013-07-20 14:18:00,
2013-07-20 10:23:00,77.0,73.5,30.05,SSW,201,3.0,8.0,89,0.00,,---,0.00,VWS V14.01,2013-07-20 14:23:00,
2013-07-20 10:28:00,77.1,73.6,30.05,SSW,204,1.0,8.0,89,0.00,,---,0.00,VWS V14.01,2013-07-20 14:28:00,
2013-07-20 10:33:00,77.0,72.8,30.05,South,183,4.0,11.0,87,0.00,,---,0.00,VWS V14.01,2013-07-20 14:33:00,
2013-07-20 10:38:00,76.9,72.7,30.05,SW,222,9.0,11.0,87,0.00,,---,0.00,VWS V14.01,2013-07-20 14:38:00,
2013-07-20 10:43:00,77.1,73.3,30.05,SSE,159,4.0,8.0,88,0.00,,---,0.00,VWS V14.01,2013-07-20 14:43:00,
2013-07-20 10:48:00,77.2,73.4,30.05,SW,225,5.0,5.0,88,0.00,,---,0.00,VWS V14.01,2013-07-20 14:48:00,
2013-07-20 10:53:00,77.4,73.6,30.05,West,261,5.0,9.0,88,0.00,,---,0.00,VWS V14.01,2013-07-20 14:53:00,
2013-07-20 10:58:00,78.0,74.2,30.05,SSE,153,2.0,4.0,88,0.00,,---,0.00,VWS V14.01,2013-07-20 14:58:00,
2013-07-20 11:03:00,78.1,73.6,30.05,SW,219,5.0,9.0,86,0.00,,---,0.00,VWS V14.01,2013-07-20 15:03:00,
2013-07-20 11:08:00,77.9,73.7,30.05,SSE,168,4.0,7.0,87,0.00,,---,0.00,VWS V14.01,2013-07-20 15:08:00,
2013-07-20 11:13:00,77.9,73.4,30.05,SSW,211,6.0,8.0,86,0.00,,---,0.00,VWS V14.01,2013-07-20 15:13:00,
2013-07-20 11:18:00,78.0,73.5,30.05,SW,224,6.0,8.0,86,0.00,,---,0.00,VWS V14.01,2013-07-20 15:18:00,
2013-07-20 11:23:00,77.9,73.4,30.05,SW,224,3.0,8.0,86,0.00,,---,0.00,VWS V14.01,2013-07-20 15:23:00,
2013-07-20 11:28:00,78.1,73.6,30.05,SSW,208,6.0,7.0,86,0.00,,---,0.00,VWS V14.01,2013-07-20 15:28:00,
2013-07-20 11:33:00,78.4,73.5,30.05,SW,232,4.0,11.0,85,0.00,,---,0.00,VWS V14.01,2013-07-20 15:33:00,
2013-07-20 11:38:00,78.5,74.0,30.05,SW,228,4.0,6.0,86,0.00,,---,0.00,VWS V14.01,2013-07-20 15:38:00,
2013-07-20 11:43:00,78.7,73.8,30.05,SE,125,3.0,6.0,85,0.00,,---,0.00,VWS V14.01,2013-07-20 15:43:00,
2013-07-20 11:48:00,79.1,74.2,30.05,SSE,163,2.0,6.0,85,0.00,,---,0.00,VWS V14.01,2013-07-20 15:48:00,
2013-07-20 11:53:00,79.4,73.8,30.04,SSW,196,4.0,8.0,83,0.00,,---,0.00,VWS V14.01,2013-07-20 15:53:00,
2013-07-20 11:58:00,79.8,74.2,30.04,SSW,210,5.0,6.0,83,0.00,,---,0.00,VWS V14.01,2013-07-20 15:58:00,
2013-07-20 12:03:00,79.8,74.5,30.04,SSW,203,5.0,5.0,84,0.00,,---,0.00,VWS V14.01,2013-07-20 16:03:00,
2013-07-20 12:08:00,79.5,74.2,30.04,SW,214,5.0,9.0,84,0.00,,---,0.00,VWS V14.01,2013-07-20 16:08:00,
2013-07-20 12:13:00,79.4,74.5,30.04,West,273,0.0,3.0,85,0.00,,---,0.00,VWS V14.01,2013-07-20 16:13:00,
2013-07-20 12:18:00,79.8,74.2,30.04,SW,235,1.0,7.0,83,0.00,,---,0.00,VWS V14.01,2013-07-20 16:18:00,
2013-07-20 12:23:00,79.9,74.3,30.03,West,268,6.0,6.0,83,0.00,,---,0.00,VWS V14.01,2013-07-20 16:23:00,
2013-07-20 12:28:00,79.9,73.9,30.03,SW,214,1.0,6.0,82,0.00,,---,0.00,VWS V14.01,2013-07-20 16:28:00,
2013-07-20 12:33:00,80.1,74.1,30.03,SW,214,3.0,10.0,82,0.00,,---,0.00,VWS V14.01,2013-07-20 16:33:00,
2013-07-20 12:38:00,80.3,73.9,30.02,SW,225,5.0,10.0,81,0.00,,---,0.00,VWS V14.01,2013-07-20 16:38:00,
2013-07-20 12:43:00,80.4,74.0,30.02,SSW,198,7.0,10.0,81,0.00,,---,0.00,VWS V14.01,2013-07-20 16:43:00,
2013-07-20 12:48:00,80.7,74.3,30.02,East,100,5.0,8.0,81,0.00,,---,0.00,VWS V14.01,2013-07-20 16:48:00,
2013-07-20 12:53:00,81.1,74.3,30.02,WSW,239,8.0,10.0,80,0.00,,---,0.00,VWS V14.01,2013-07-20 16:53:00,
2013-07-20 12:58:00,81.0,74.6,30.02,SSW,211,8.0,8.0,81,0.00,,---,0.00,VWS V14.01,2013-07-20 16:58:00,
2013-07-20 13:04:00,81.3,74.2,30.02,SE,145,6.0,11.0,79,0.00,,---,0.00,VWS V14.01,2013-07-20 17:04:00,
2013-07-20 13:09:00,81.8,73.9,30.01,SSW,197,7.0,11.0,77,0.00,,---,0.00,VWS V14.01,2013-07-20 17:09:00,
2013-07-20 13:14:00,81.6,74.8,30.01,South,188,7.0,12.0,80,0.00,,---,0.00,VWS V14.01,2013-07-20 17:14:00,
2013-07-20 13:19:00,81.6,74.5,30.01,SSE,153,4.0,7.0,79,0.00,,---,0.00,VWS V14.01,2013-07-20 17:19:00,
2013-07-20 13:24:00,81.6,74.8,30.01,SSW,210,5.0,6.0,80,0.00,,---,0.00,VWS V14.01,2013-07-20 17:24:00,
2013-07-20 13:29:00,81.5,75.1,30.01,SSW,208,7.0,8.0,81,0.00,,---,0.00,VWS V14.01,2013-07-20 17:29:00,
2013-07-20 13:34:00,81.2,74.8,30.01,SSW,212,6.0,8.0,81,0.00,,---,0.00,VWS V14.01,2013-07-20 17:34:00,
2013-07-20 13:39:00,81.4,75.7,30.01,SW,228,1.0,6.0,83,0.00,,---,0.00,VWS V14.01,2013-07-20 17:39:00,
2013-07-20 13:44:00,81.9,74.4,30.00,ESE,117,5.0,7.0,78,0.00,,---,0.00,VWS V14.01,2013-07-20 17:44:00,
2013-07-20 13:49:00,82.2,74.3,30.00,WSW,237,8.0,9.0,77,0.00,,---,0.00,VWS V14.01,2013-07-20 17:49:00,
2013-07-20 13:54:00,82.0,74.8,30.00,SSE,153,6.0,9.0,79,0.00,,---,0.00,VWS V14.01,2013-07-20 17:54:00,
2013-07-20 13:59:00,82.1,75.7,30.00,SSW,203,2.0,7.0,81,0.00,,---,0.00,VWS V14.01,2013-07-20 17:59:00,
2013-07-20 14:04:00,82.4,74.9,30.00,SSW,212,4.0,9.0,78,0.00,,---,0.00,VWS V14.01,2013-07-20 18:04:00,
2013-07-20 14:09:00,82.7,75.5,30.00,SE,143,3.0,9.0,79,0.00,,---,0.00,VWS V14.01,2013-07-20 18:09:00,
2013-07-20 14:14:00,83.3,75.3,29.99,South,169,7.0,9.0,77,0.00,,---,0.00,VWS V14.01,2013-07-20 18:14:00,
2013-07-20 14:19:00,83.7,75.3,29.99,SW,217,5.0,10.0,76,0.00,,---,0.00,VWS V14.01,2013-07-20 18:19:00,
2013-07-20 14:24:00,83.2,74.8,29.99,SW,219,7.0,12.0,76,0.00,,---,0.00,VWS V14.01,2013-07-20 18:24:00,
2013-07-20 14:29:00,82.8,75.2,29.99,South,186,8.0,10.0,78,0.00,,---,0.00,VWS V14.01,2013-07-20 18:29:00,
2013-07-20 14:34:00,83.2,74.8,29.98,SW,219,10.0,12.0,76,0.00,,---,0.00,VWS V14.01,2013-07-20 18:34:00,
2013-07-20 14:39:00,82.8,74.5,29.98,SSW,211,5.0,9.0,76,0.00,,---,0.00,VWS V14.01,2013-07-20 18:39:00,
2013-07-20 14:44:00,83.0,75.4,29.98,SW,217,4.0,7.0,78,0.00,,---,0.00,VWS V14.01,2013-07-20 18:44:00,
2013-07-20 14:49:00,83.2,74.5,29.98,SW,219,5.0,11.0,75,0.00,,---,0.00,VWS V14.01,2013-07-20 18:49:00,
2013-07-20 14:54:00,83.4,75.4,29.97,WSW,246,1.0,7.0,77,0.00,,---,0.00,VWS V14.01,2013-07-20 18:54:00,
2013-07-20 15:00:00,83.9,74.3,29.97,South,180,5.0,9.0,73,0.00,,---,0.00,VWS V14.01,2013-07-20 19:00:00,
2013-07-20 15:05:00,83.9,73.9,29.97,South,177,4.0,10.0,72,0.00,,---,0.00,VWS V14.01,2013-07-20 19:05:00,
2013-07-20 15:10:00,84.2,75.0,29.97,SSW,195,7.0,11.0,74,0.00,,---,0.00,VWS V14.01,2013-07-20 19:10:00,
2013-07-20 15:15:00,84.2,74.6,29.97,SW,214,5.0,12.0,73,0.00,,---,0.00,VWS V14.01,2013-07-20 19:15:00,
2013-07-20 15:20:00,84.3,75.5,29.97,SSW,208,4.0,13.0,75,0.00,,---,0.00,VWS V14.01,2013-07-20 19:20:00,
2013-07-20 15:25:00,84.5,75.3,29.97,WSW,239,7.0,11.0,74,0.00,,---,0.00,VWS V14.01,2013-07-20 19:25:00,
2013-07-20 15:30:00,84.5,74.1,29.97,WSW,242,10.0,12.0,71,0.00,,---,0.00,VWS V14.01,2013-07-20 19:30:00,
2013-07-20 15:35:00,84.5,74.5,29.97,SSW,204,3.0,12.0,72,0.00,,---,0.00,VWS V14.01,2013-07-20 19:35:00,
2013-07-20 15:40:00,84.7,75.1,29.97,SSE,150,4.0,9.0,73,0.00,,---,0.00,VWS V14.01,2013-07-20 19:40:00,
2013-07-20 15:45:00,84.7,74.3,29.97,SW,231,3.0,11.0,71,0.00,,---,0.00,VWS V14.01,2013-07-20 19:45:00,
2013-07-20 15:51:00,84.7,73.8,29.97,SW,222,4.0,13.0,70,0.00,,---,0.00,VWS V14.01,2013-07-20 19:51:00,
2013-07-20 15:56:00,84.9,74.9,29.97,SSW,207,4.0,10.0,72,0.00,,---,0.00,VWS V14.01,2013-07-20 19:56:00,
2013-07-20 16:01:00,85.0,74.6,29.97,SSW,211,3.0,11.0,71,0.00,,---,0.00,VWS V14.01,2013-07-20 20:01:00,
2013-07-20 16:06:00,85.0,75.0,29.97,West,267,1.0,1.0,72,0.00,,---,0.00,VWS V14.01,2013-07-20 20:06:00,
2013-07-20 16:11:00,84.8,75.2,29.97,SW,228,5.0,10.0,73,0.00,,---,0.00,VWS V14.01,2013-07-20 20:11:00,
2013-07-20 16:16:00,84.8,74.8,29.97,SW,232,12.0,12.0,72,0.00,,---,0.00,VWS V14.01,2013-07-20 20:16:00,
2013-07-20 16:21:00,84.4,74.8,29.97,SSW,195,5.0,5.0,73,0.00,,---,0.00,VWS V14.01,2013-07-20 20:21:00,
2013-07-20 16:26:00,84.7,74.7,29.97,SW,215,11.0,12.0,72,0.00,,---,0.00,VWS V14.01,2013-07-20 20:26:00,
2013-07-20 16:32:00,84.7,74.3,29.97,SW,228,1.0,7.0,71,0.00,,---,0.00,VWS V14.01,2013-07-20 20:32:00,
2013-07-20 16:37:00,84.8,73.9,29.97,West,266,4.0,10.0,70,0.00,,---,0.00,VWS V14.01,2013-07-20 20:37:00,
2013-07-20 16:42:00,84.7,74.7,29.96,WSW,252,4.0,9.0,72,0.00,,---,0.00,VWS V14.01,2013-07-20 20:42:00,
2013-07-20 16:47:00,84.5,75.3,29.96,SW,228,2.0,7.0,74,0.00,,---,0.00,VWS V14.01,2013-07-20 20:47:00,
2013-07-20 16:52:00,84.7,74.3,29.96,SW,231,2.0,9.0,71,0.00,,---,0.00,VWS V14.01,2013-07-20 20:52:00,
2013-07-20 16:57:00,84.7,75.5,29.96,West,262,3.0,6.0,74,0.00,,---,0.00,VWS V14.01,2013-07-20 20:57:00,
2013-07-20 17:03:00,84.5,74.1,29.96,SW,226,9.0,10.0,71,0.00,,---,0.00,VWS V14.01,2013-07-20 21:03:00,
2013-07-20 17:08:00,84.3,73.5,29.95,WSW,246,5.0,11.0,70,0.00,,---,0.00,VWS V14.01,2013-07-20 21:08:00,
2013-07-20 17:13:00,84.5,74.9,29.95,WNW,286,6.0,10.0,73,0.00,,---,0.00,VWS V14.01,2013-07-20 21:13:00,
2013-07-20 17:18:00,84.7,74.3,29.95,SSE,159,4.0,8.0,71,0.00,,---,0.00,VWS V14.01,2013-07-20 21:18:00,
2013-07-20 17:23:00,84.8,74.4,29.95,SSW,211,1.0,6.0,71,0.00,,---,0.00,VWS V14.01,2013-07-20 21:23:00,
2013-07-20 17:28:00,84.7,73.8,29.95,SSE,165,3.0,10.0,70,0.00,,---,0.00,VWS V14.01,2013-07-20 21:28:00,
2013-07-20 17:33:00,84.5,73.7,29.95,South,184,3.0,9.0,70,0.00,,---,0.00,VWS V14.01,2013-07-20 21:33:00,
2013-07-20 17:38:00,84.2,73.4,29.95,SSW,204,1.0,6.0,70,0.00,,---,0.00,VWS V14.01,2013-07-20 21:38:00,
2013-07-20 17:44:00,83.7,73.3,29.95,West,276,3.0,7.0,71,0.00,,---,0.00,VWS V14.01,2013-07-20 21:44:00,
2013-07-20 17:49:00,83.3,73.3,29.95,SE,143,2.0,5.0,72,0.00,,---,0.00,VWS V14.01,2013-07-20 21:49:00,
2013-07-20 17:54:00,83.1,73.6,29.95,South,191,1.0,4.0,73,0.00,,---,0.00,VWS V14.01,2013-07-20 21:54:00,
2013-07-20 17:59:00,83.1,74.0,29.94,SW,231,3.0,4.0,74,0.00,,---,0.00,VWS V14.01,2013-07-20 21:59:00,
2013-07-20 18:04:00,83.4,73.8,29.94,South,181,4.0,6.0,73,0.00,,---,0.00,VWS V14.01,2013-07-20 22:04:00,
2013-07-20 18:09:00,83.6,73.6,29.94,SE,142,0.0,7.0,72,0.00,,---,0.00,VWS V14.01,2013-07-20 22:09:00,
2013-07-20 18:14:00,83.6,73.2,29.93,SW,226,7.0,8.0,71,0.00,,---,0.00,VWS V14.01,2013-07-20 22:14:00,
2013-07-20 18:19:00,83.6,73.2,29.94,SSW,205,3.0,9.0,71,0.00,,---,0.00,VWS V14.01,2013-07-20 22:19:00,
2013-07-20 18:25:00,83.4,73.0,29.94,SW,219,3.0,5.0,71,0.00,,---,0.00,VWS V14.01,2013-07-20 22:25:00,
2013-07-20 18:30:00,83.3,73.8,29.93,SW,219,0.0,2.0,73,0.00,,---,0.00,VWS V14.01,2013-07-20 22:30:00,
2013-07-20 18:35:00,83.2,73.7,29.93,SSW,200,3.0,4.0,73,0.00,,---,0.00,VWS V14.01,2013-07-20 22:35:00,
2013-07-20 18:40:00,83.1,74.0,29.93,SSW,204,2.0,3.0,74,0.00,,---,0.00,VWS V14.01,2013-07-20 22:40:00,
2013-07-20 18:46:00,82.8,74.1,29.93,SSW,203,2.0,2.0,75,0.00,,---,0.00,VWS V14.01,2013-07-20 22:46:00,
2013-07-20 18:51:00,82.6,74.3,29.93,SSW,205,2.0,2.0,76,0.00,,---,0.00,VWS V14.01,2013-07-20 22:51:00,
2013-07-20 18:57:00,82.5,74.6,29.93,South,170,0.0,2.0,77,0.00,,---,0.00,VWS V14.01,2013-07-20 22:57:00,
2013-07-20 19:02:00,82.2,74.7,29.93,South,176,1.0,1.0,78,0.00,,---,0.00,VWS V14.01,2013-07-20 23:02:00,
2013-07-20 19:07:00,82.0,74.5,29.93,SSE,166,2.0,4.0,78,0.00,,---,0.00,VWS V14.01,2013-07-20 23:07:00,
2013-07-20 19:12:00,81.7,74.6,29.93,SSW,193,0.0,2.0,79,0.00,,---,0.00,VWS V14.01,2013-07-20 23:12:00,
2013-07-20 19:17:00,81.6,74.8,29.93,SW,214,1.0,1.0,80,0.00,,---,0.00,VWS V14.01,2013-07-20 23:17:00,
2013-07-20 19:22:00,81.4,74.6,29.93,South,190,0.0,1.0,80,0.00,,---,0.00,VWS V14.01,2013-07-20 23:22:00,
2013-07-20 19:27:00,81.4,74.6,29.93,South,190,0.0,0.0,80,0.00,,---,0.00,VWS V14.01,2013-07-20 23:27:00,
2013-07-20 19:32:00,81.4,74.6,29.93,SSW,207,0.0,1.0,80,0.00,,---,0.00,VWS V14.01,2013-07-20 23:32:00,
2013-07-20 19:37:00,81.3,74.5,29.94,SSW,197,0.0,1.0,80,0.00,,---,0.00,VWS V14.01,2013-07-20 23:37:00,
2013-07-20 19:42:00,81.2,74.8,29.94,SSW,197,0.0,0.0,81,0.00,,---,0.00,VWS V14.01,2013-07-20 23:42:00,
2013-07-20 19:47:00,81.1,74.7,29.95,SSE,162,0.0,1.0,81,0.00,,---,0.00,VWS V14.01,2013-07-20 23:47:00,
2013-07-20 19:53:00,80.9,74.9,29.95,SSE,162,0.0,0.0,82,0.00,,---,0.00,VWS V14.01,2013-07-20 23:53:00,
2013-07-20 19:58:00,80.6,74.6,29.95,SE,141,0.0,1.0,82,0.00,,---,0.00,VWS V14.01,2013-07-20 23:58:00,
2013-07-20 20:03:00,80.4,74.4,29.95,SE,136,2.0,2.0,82,0.00,,---,0.00,VWS V14.01,2013-07-21 00:03:00,
2013-07-20 20:09:00,80.3,74.3,29.96,SSE,150,2.0,2.0,82,0.00,,---,0.00,VWS V14.01,2013-07-21 00:09:00,
2013-07-20 20:14:00,80.2,74.2,29.96,SSE,164,2.0,3.0,82,0.00,,---,0.00,VWS V14.01,2013-07-21 00:14:00,
2013-07-20 20:19:00,80.1,74.1,29.96,SSE,152,2.0,2.0,82,0.00,,---,0.00,VWS V14.01,2013-07-21 00:19:00,
2013-07-20 20:24:00,80.0,74.4,29.97,SSE,158,2.0,2.0,83,0.00,,---,0.00,VWS V14.01,2013-07-21 00:24:00,
2013-07-20 20:29:00,79.9,74.3,29.96,SSE,168,2.0,2.0,83,0.00,,---,0.00,VWS V14.01,2013-07-21 00:29:00,
2013-07-20 20:35:00,79.9,74.3,29.96,SSE,161,1.0,2.0,83,0.00,,---,0.00,VWS V14.01,2013-07-21 00:35:00,
2013-07-20 20:40:00,79.8,74.2,29.96,SSE,161,0.0,0.0,83,0.00,,---,0.00,VWS V14.01,2013-07-21 00:40:00,
2013-07-20 20:45:00,79.6,74.7,29.96,West,264,0.0,1.0,85,0.00,,---,0.00,VWS V14.01,2013-07-21 00:45:00,
2013-07-20 20:51:00,79.1,74.6,29.96,West,280,0.0,1.0,86,0.00,,---,0.00,VWS V14.01,2013-07-21 00:51:00,
2013-07-20 20:56:00,79.0,74.8,29.97,WNW,285,0.0,0.0,87,0.00,,---,0.00,VWS V14.01,2013-07-21 00:56:00,
2013-07-20 21:01:00,79.0,74.8,29.97,WNW,285,0.0,1.0,87,0.00,,---,0.00,VWS V14.01,2013-07-21 01:01:00,
2013-07-20 21:06:00,79.0,74.5,29.97,West,264,0.0,2.0,86,0.00,,---,0.00,VWS V14.01,2013-07-21 01:06:00,
2013-07-20 21:11:00,79.1,74.9,29.98,SE,141,0.0,1.0,87,0.00,,---,0.00,VWS V14.01,2013-07-21 01:11:00,
2013-07-20 21:16:00,78.8,74.9,29.98,SE,141,0.0,1.0,88,0.00,,---,0.00,VWS V14.01,2013-07-21 01:16:00,
2013-07-20 21:21:00,78.6,74.8,29.98,ESE,117,1.0,2.0,88,0.00,,---,0.00,VWS V14.01,2013-07-21 01:21:00,
2013-07-20 21:26:00,78.3,74.8,29.98,ESE,103,0.0,2.0,89,0.00,,---,0.00,VWS V14.01,2013-07-21 01:26:00,
2013-07-20 21:31:00,78.3,74.5,29.98,ESE,117,4.0,4.0,88,0.00,,---,0.00,VWS V14.01,2013-07-21 01:31:00,
2013-07-20 21:36:00,78.4,73.9,29.98,SE,140,4.0,5.0,86,0.00,,---,0.00,VWS V14.01,2013-07-21 01:36:00,
2013-07-20 21:41:00,78.3,74.1,29.98,SSW,193,2.0,3.0,87,0.00,,---,0.00,VWS V14.01,2013-07-21 01:41:00,
2013-07-20 21:46:00,78.2,73.7,29.98,SW,218,3.0,3.0,86,0.00,,---,0.00,VWS V14.01,2013-07-21 01:46:00,
2013-07-20 21:51:00,78.1,74.3,29.98,SW,214,2.0,5.0,88,0.00,,---,0.00,VWS V14.01,2013-07-21 01:51:00,
2013-07-20 21:57:00,77.7,74.2,29.99,NW,326,4.0,8.0,89,0.00,,---,0.00,VWS V14.01,2013-07-21 01:57:00,
2013-07-20 22:02:00,77.4,73.9,30.00,West,281,5.0,8.0,89,0.00,,---,0.00,VWS V14.01,2013-07-21 02:02:00,
2013-07-20 22:07:00,76.7,73.6,30.00,WNW,300,4.0,5.0,90,0.00,,---,0.00,VWS V14.01,2013-07-21 02:07:00,
2013-07-20 22:12:00,76.5,73.7,30.00,WSW,246,4.0,4.0,91,0.00,,---,0.00,VWS V14.01,2013-07-21 02:12:00,
2013-07-20 22:17:00,76.4,73.2,30.01,SSW,203,4.0,8.0,90,0.00,,---,0.00,VWS V14.01,2013-07-21 02:17:00,
2013-07-20 22:22:00,76.4,72.9,30.01,WSW,247,11.0,11.0,89,0.00,,---,0.00,VWS V14.01,2013-07-21 02:22:00,
2013-07-20 22:27:00,76.1,73.0,30.01,SSW,205,10.0,10.0,90,0.00,,---,0.00,VWS V14.01,2013-07-21 02:27:00,
2013-07-20 22:33:00,75.7,72.6,30.01,South,176,6.0,6.0,90,0.00,,---,0.00,VWS V14.01,2013-07-21 02:33:00,
2013-07-20 22:38:00,75.3,72.2,30.01,SW,214,1.0,3.0,90,0.00,,---,0.00,VWS V14.01,2013-07-21 02:38:00,
2013-07-20 22:43:00,75.1,72.0,30.01,WSW,256,1.0,8.0,90,0.00,,---,0.00,VWS V14.01,2013-07-21 02:43:00,
2013-07-20 22:48:00,75.0,71.9,30.01,WSW,238,2.0,7.0,90,0.00,,---,0.00,VWS V14.01,2013-07-21 02:48:00,
2013-07-20 22:53:00,74.8,71.7,30.01,SSW,207,2.0,4.0,90,0.00,,---,0.00,VWS V14.01,2013-07-21 02:53:00,
2013-07-20 22:58:00,74.6,71.5,30.00,SW,231,4.0,5.0,90,0.00,,---,0.00,VWS V14.01,2013-07-21 02:58:00,
2013-07-20 23:03:00,74.6,71.8,30.00,South,172,2.0,8.0,91,0.00,,---,0.00,VWS V14.01,2013-07-21 03:03:00,
2013-07-20 23:08:00,74.5,71.7,30.00,WSW,240,4.0,5.0,91,0.00,,---,0.00,VWS V14.01,2013-07-21 03:08:00,
2013-07-20 23:13:00,74.3,71.8,30.00,SW,224,4.0,4.0,92,0.00,,---,0.00,VWS V14.01,2013-07-21 03:13:00,
2013-07-20 23:18:00,74.2,71.7,30.00,WSW,252,0.0,3.0,92,0.00,,---,0.00,VWS V14.01,2013-07-21 03:18:00,
2013-07-20 23:24:00,74.1,71.6,30.00,WSW,253,0.0,0.0,92,0.00,,---,0.00,VWS V14.01,2013-07-21 03:24:00,
2013-07-20 23:29:00,74.0,71.8,30.00,WSW,253,0.0,1.0,93,0.00,,---,0.00,VWS V14.01,2013-07-21 03:29:00,
2013-07-20 23:34:00,74.0,71.8,30.00,WSW,250,0.0,1.0,93,0.00,,---,0.00,VWS V14.01,2013-07-21 03:34:00,
2013-07-20 23:39:00,74.0,71.8,30.00,WSW,250,0.0,0.0,93,0.00,,---,0.00,VWS V14.01,2013-07-21 03:39:00,
2013-07-20 23:44:00,73.9,71.8,30.00,WSW,250,0.0,0.0,93,0.00,,---,0.00,VWS V14.01,2013-07-21 03:44:00,
2013-07-20 23:49:00,73.9,71.8,30.00,SW,232,0.0,0.0,93,0.00,,---,0.00,VWS V14.01,2013-07-21 03:49:00,
2013-07-20 23:54:00,73.8,71.7,30.00,SSE,168,1.0,3.0,93,0.00,,---,0.00,VWS V14.01,2013-07-21 03:54:00,
2013-07-20 23:59:00,73.5,71.7,30.00,SSE,153,1.0,3.0,94,0.00,,---,0.00,VWS V14.01,2013-07-21 03:59:00,